Pagina principale
METAR-TAF:

METAR-TAF

Aeroporti :

Torino, Italia

Bric della Croce

latitudine: 45-02N, longitudine: 007-44E, altezza: 709 m

Osservazione

Il bollettino è stato emesso 54 minuti fa, alle 23:55 UTC
Vento 5 kt da ovest, variando fra sud/sud-ovest e nord-ovest
Temperature 4°C
Umidità 81%
Pressione 998 hPa
Visibilità 10 km o più
nessuna nube inferiore a 1500 m e nessun cumulonembo

METAR: LIMK 162355Z 26005KT 200V310 CAVOK 04/01 Q0998 RMK SKC VAL FOSCHIA SKC SUP VIS MIN 9999

Ora: 01:49 (00:49 UTC)


TAF: mancante

Osservazioni e previsioni meteorologiche di più di 4000 aeroporti (messaggi METAR e TAF).

Le stazioni disponibili sono rappresentate dai dischi gialli e rossi sulla carta.

Puntare il mouse per vedere il nome della stazione.

Clicca sopra per visualizzare le osservazioni e previsioni meteorologiche.

Per cambiare la mappa : fare clic sui pulsanti verdi con una croce nera per ingrandire, il pulsante verde con un trattino per diminuire, o sulla freccia verde per le mappe adiacenti.


METAR-TAF: